This is the latest recevied weather packets stored in our database for station/object OK1FET-14. If no packets are shown the sender has not sent any weather packets the latest 10 day(s).
| Time | Temp. | Humidity | Pressure | Rain* | Wind** | Luminosity | Snow |
|---|---|---|---|---|---|---|---|
| 1788622438 | 22.78° C | 38% | 1021.4 hPa | - | - | - | - |
| 1788622131 | 22.78° C | 38% | 1020.8 hPa | - | - | - | - |
| 1788622131 | 22.78° C | 38% | 1020.8 hPa | - | - | - | - |
| 1788621850 | 23.33° C | 39% | 1021.3 hPa | - | - | - | - |
| 1788621850 | 23.33° C | 39% | 1021.3 hPa | - | - | - | - |
| 1788621850 | 23.33° C | 39% | 1021.3 hPa | - | - | - | - |
| 1788621850 | 23.33° C | 39% | 1021.3 hPa | - | - | - | - |
| 1788621569 | 22.78° C | 39% | 1021.3 hPa | - | - | - | - |
| 1788621569 | 22.78° C | 39% | 1021.3 hPa | - | - | - | - |
| 1788621569 | 22.78° C | 39% | 1021.3 hPa | - | - | - | - |
| 1788621288 | 21.67° C | 41% | 1021.2 hPa | - | - | - | - |
| 1788621288 | 21.67° C | 41% | 1021.2 hPa | - | - | - | - |
| 1788621007 | 21.67° C | 41% | 1021.3 hPa | - | - | - | - |
| 1788621007 | 21.67° C | 41% | 1021.3 hPa | - | - | - | - |
| 1788621007 | 21.67° C | 41% | 1021.3 hPa | - | - | - | - |
| 1788620726 | 23.33° C | 39% | 1021.1 hPa | - | - | - | - |
| 1788620726 | 23.33° C | 39% | 1021.1 hPa | - | - | - | - |
| 1788620445 | 23.89° C | 38% | 1021.1 hPa | - | - | - | - |
| 1788620445 | 23.89° C | 38% | 1021.1 hPa | - | - | - | - |
| 1788620445 | 23.89° C | 38% | 1021.1 hPa | - | - | - | - |
| 1788620164 | 24.44° C | 37% | 1021.1 hPa | - | - | - | - |
| 1788620164 | 24.44° C | 37% | 1021.1 hPa | - | - | - | - |
| 1788620163 | 24.44° C | 37% | 1021.1 hPa | - | - | - | - |
| 1788619882 | 25° C | 37% | 1021.2 hPa | - | - | - | - |
| 1788619882 | 25° C | 37% | 1021.2 hPa | - | - | - | - |
* Rain since midnight (hover to see other rain measurements)
** Current wind speed in m/s (hover to see current wind gust speed)